SCP
0 0 0 0 0 0 0 0 0 0 0 0 0 0 0 0 0 0 -0 0 0 0 0 0 0 0 0 0 0 0 0 0 0 0 0 0 0 0 0 0 0 0 0 0 0 0 0
0 0 0 0 0 0 0 0 0 0 0 0 0 0 0 0 0 0 0 0 0 0 0 0 0 0 0 0 0 0 0 0 0 0 0 0 0 0 0 0 0 0 0 0 0 0 0
0 0 0 0 0 0 0 0 0 0 0 0 0 0 0 0 0 0 0 0 0 0 0 0 0 0 0 0 0 0 0 0 0 0 0 0 0 0 0 0 0 0 0 0 0 0 0
0 0 0 0 0 0 0 0 0 0 0 0 0 0 0 0 0 0 0 0 0 0 0 0 0 0 0 0 0 0 0 0 0 0 0 0 0 0 0 0 0 0 0 0 0 0 0
0 0 0 0 0 0 0 0 0 0 0 0 0 0 0 0 0 0 0 0 0 0 0 0 0 0 0 0 0 0 0 0 0 0 0 0 0 0 0 0 0 0 0 0 0 0 0
0 0 0 0 0 0 0 0 0 0 0 0 0 0 0 0 0 0 0 0 0 0 0 0 0 -0 0 0 0 0 0 0 0 0 0 0 0 0 0 0 0 0 0 0 0 0 0
0 0 0 0 0 0 0 0 0 0 0 0 0 0 0 0 0 0 0 0 0 0 0 0 -0 -0 0 0 0 0 0 0 0 0 0 0 0 0 0 0 0 0 0 0 0 0 0
0 0 0 0 0 0 0 0 0 0 0 0 0 0 0 0 0 0 0 0 0 0 0 0 -0 0 0 0 0 0 0 0 0 0 0 0 0 0 0 0 0 0 0 0 0 0 0
0 0 0 0 0 0 0 0 0 0 0 0 0 0 0 0 0 0 0 0 0 0 0 0 0 0 0 0 0 0 0 0 0 0 0 0 0 0 0 0 0 0 0 0 0 0 0
0 0 0 0 0 0 0 0 0 0 0 0 0 0 0 0 0 0 0 0 0 0 0 0 0 0 0 0 0 0 0 0 0 0 0 0 0 0 0 0 0 0 0 -0 -0 0 0
0 0 0 0 0 0 0 0 0 0 0 0 0 0 0 0 0 0 0 0 0 0 0 0 0 0 0 0 0 0 0 0 0 0 0 0 0 0 0 0 0 0 0 -0 0 0 0
0 0 0 0 0 0 0 0 0 0 0 0 0 0 0 0 0 0 0 0 0 0 0 0 0 0 0 0 0 0 0 0 0 0 0 0 0 0 0 0 0 -0 0 -0 -0 -0 0
0 0 0 0 0 0 0 0 0 0 0 0 0 0 0 0 0 0 0 0 0 0 0 0 0 0 0 0 0 0 0 0 0 0 0 0 0 0 0 0 0 0 0 0 0 0 -0
0 0 0 0 0 0 0 0 0 0 0 0 0 0 0 0 0 0 0 0 0 0 0 0 0 0 0 0 0 0 0 0 0 0 0 0 0 0 0 0 0 0 0 0 -0 -0 0
0 0 0 0 0 0 0 0 0 0 0 0 0 0 0 0 0 0 0 0 0 0 0 0 0 0 0 0 0 0 0 0 0 0 0 0 0 0 0 0 0 0 0 0 0 0 0
0 0 0 0 0 0 0 0 0 0 0 0 0 0 0 0 0 0 0 0 0 0 0 0 0 0 0 0 -0 -0 0 0 0 0 0 0 0 0 0 0 0 0 0 0 0 0 0
0 0 0 0 0 0 0 0 0 0 0 0 0 0 0 0 0 0 0 0 0 0 0 0 0 0 0 0 0 -0 0 0 0 0 0 0 0 0 0 0 0 0 0 0 0 0 0
0 0 0 0 0 0 0 0 0 0 0 0 0 0 0 0 0 0 0 0 0 0 0 0 0 0 0 0 0 -0 0 0 0 0 0 0 0 0 0 0 0 0 0 0 0 0 0
0 0 0 0 0 0 0 0 0 0 0 0 0 0 0 0 0 0 0 0 0 0 0 0 0 0 0 0 -0 0 0 0 0 0 0 0 0 0 0 0 0 0 0 0 0 0 0
0 0 0 0 0 0 0 0 0 0 0 0 0 0 0 0 0 0 0 0 0 0 0 0 0 0 0 0 0 0 0 0 0 0 0 0 0 0 0 0 0 0 0 0 0 0 0
0 0 0 0 0 0 0 0 0 0 0 0 0 0 0 0 0 0 0 0 0 0 0 0 0 0 0 0 0 0 0 0 0 0 0 0 0 0 0 0 0 0 0 0 0 0 0
0 0 0 0 0 0 0 0 0 0 0 0 0 0 0 0 0 0 0 0 0 0 0 0 0 0 0 0 0 0 0 0 0 0 0 0 0 0 0 0 0 0 0 0 0 0 0
0 0 0 0 0 0 0 0 0 0 0 0 0 0 0 0 0 0 0 0 0 0 0 0 0 0 0 0 0 -0 0 0 0 0 0 0 0 0 0 0 0 0 0 0 0 0 0
0 0 0 0 0 0 0 0 0 0 0 0 0 0 0 0 0 0 0 0 0 0 0 0 0 0 0 0 0 0 0 0 0 0 0 0 0 0 0 0 0 0 0 0 0 0 0
0 0 0 0 0 0 0 0 0 0 0 0 0 0 0 0 0 0 0 0 0 0 0 0 0 0 0 0 0 0 0 0 0 0 0 0 0 0 0 0 0 0 0 0 0 0 0
0 0 0 0 0 0 0 0 0 0 0 0 0 0 0 0 0 0 0 0 0 0 0 0 0 0 0 0 0 0 0 0 0 0 0 0 0 0 0 0 0 0 0 0 0 0 0
0 0 0 0 0 0 0 0 0 0 0 0 0 0 0 0 0 0 0 0 0 0 0 0 0 0 0 0 0 0 0 0 0 0 0 0 0 0 0 0 0 0 0 0 0 0 0
0 0 0 0 0 0 0 0 0 0 0 0 0 0 0 0 0 0 0 0 0 0 0 0 0 0 0 0 0 0 0 0 0 0 0 0 0 0 0 0 0 0 0 0 0 0 0
0 0 0 0 0 0 0 0 0 0 0 0 0 0 0 0 0 0 0 0 0 0 0 0 0 0 0 0 0 0 0 0 0 0 0 0 0 0 0 0 0 0 0 -0 0 0 0
Wind_Speed_500mb
5 7 6 9 9 10 10 13 14 16 19 23 28 30 33 37 42 46 49 45 49 47 30 17 14 7 11 9 3 31 49 39 26 20 19 20 20 19 18 16 24 33 37 45 44 43 49
10 9 8 10 11 11 13 12 17 17 20 24 28 32 34 38 43 47 49 47 51 32 23 16 11 6 13 2 21 29 47 28 20 23 26 23 18 23 27 25 23 26 37 41 45 50 55
13 13 10 11 13 12 14 16 17 20 22 25 29 33 36 39 43 48 47 50 43 29 15 16 10 20 13 6 19 31 31 27 25 38 39 29 25 20 14 22 14 26 36 40 41 47 34
16 17 14 15 14 17 14 18 19 20 24 27 30 33 37 40 46 49 44 49 28 19 10 13 8 9 4 21 26 29 36 34 37 27 13 13 14 19 24 24 34 35 36 30 12 16 31
20 19 19 18 16 17 18 19 21 22 24 27 30 34 39 41 46 48 46 43 25 12 9 10 10 4 5 22 39 36 39 44 36 10 12 5 5 12 12 17 25 19 20 32 45 34 34
24 22 22 20 19 17 20 21 22 23 25 28 30 33 38 43 46 42 47 30 17 21 8 1 19 2 11 30 29 38 51 40 13 17 3 5 8 14 10 13 20 34 40 41 44 39 31
28 27 25 24 18 21 21 22 23 24 25 28 30 32 38 44 47 37 43 17 11 2 22 12 7 3 20 37 11 38 60 35 16 7 16 14 11 18 28 27 28 31 37 47 48 46 28
28 28 25 26 22 25 22 23 24 24 25 28 30 32 36 43 46 33 35 14 7 5 2 9 13 5 20 33 14 45 58 26 16 19 26 4 9 18 19 21 29 44 49 47 49 32 17
28 26 26 27 26 28 25 25 26 25 24 27 29 31 34 43 38 39 32 32 11 15 6 1 9 8 20 19 12 43 52 25 16 21 21 6 13 19 20 29 38 42 47 34 41 45 51
35 28 28 32 31 32 29 28 28 25 24 26 28 31 32 40 21 38 27 36 9 12 4 17 10 11 22 14 3 34 40 21 16 21 20 6 17 23 28 33 44 40 35 49 51 26 11
45 37 35 40 38 35 37 31 29 27 23 25 27 29 32 31 30 24 35 26 4 7 5 15 9 15 20 23 22 39 39 23 21 24 9 15 21 32 27 39 49 31 54 47 43 28 18
56 50 46 46 38 38 39 33 30 26 23 24 26 27 30 33 26 34 32 16 6 4 7 10 7 20 20 24 14 30 35 41 3 9 13 13 19 11 23 44 37 53 42 27 12 10 6
66 55 47 45 40 38 38 32 31 26 23 24 25 26 28 29 17 35 26 6 6 9 9 16 11 18 21 21 11 27 26 38 29 19 24 26 1 21 35 41 21 41 37 7 4 7 10
67 66 55 46 46 35 38 31 31 28 23 23 24 26 28 23 24 27 13 3 13 2 6 7 11 20 11 21 10 26 20 28 31 27 18 17 8 24 22 20 35 29 22 10 12 11 11
81 74 58 53 47 38 37 32 30 27 23 21 23 25 25 13 24 17 4 10 4 2 5 13 14 5 8 11 13 18 23 22 18 24 16 14 8 14 12 20 40 21 19 20 10 13 6
72 71 61 52 51 44 38 30 30 26 23 19 22 25 21 13 16 7 6 6 4 2 2 2 8 6 8 16 19 18 25 12 17 27 13 9 14 8 11 15 40 16 20 7 7 14 10
40 59 63 55 55 48 41 32 30 27 22 18 17 10 9 12 5 3 6 5 4 4 2 3 3 3 3 7 13 11 16 5 21 23 18 6 4 21 9 23 39 25 14 10 4 9 10
49 52 58 62 54 52 43 34 32 30 22 17 9 5 7 6 0 6 5 7 6 6 5 4 3 1 1 3 8 6 8 8 21 21 15 8 8 11 4 9 21 40 24 10 8 9 6
41 23 41 65 56 52 45 38 34 32 25 13 8 8 5 2 5 3 3 5 5 6 6 6 4 1 3 2 6 5 7 6 15 20 13 13 11 13 1 7 22 17 38 15 2 5 13
49 49 53 63 63 53 47 40 34 33 28 23 7 1 1 4 7 10 9 6 7 3 4 5 2 5 4 4 7 10 8 2 12 18 10 5 7 9 12 3 8 24 31 31 3 5 6
45 47 42 59 66 57 51 44 40 36 32 25 11 5 6 3 1 7 4 11 8 7 7 8 6 9 6 4 4 7 7 9 7 13 6 5 4 3 6 7 4 19 26 24 20 12 7
61 56 46 51 57 63 57 50 45 39 37 35 10 9 8 6 9 11 4 11 12 7 14 7 7 7 10 7 6 4 6 6 6 10 8 6 2 3 7 11 13 18 25 22 15 14 8
65 65 55 38 48 58 65 59 52 48 48 24 26 13 8 5 6 4 6 11 11 13 10 3 10 7 5 13 14 14 15 17 12 7 8 7 5 4 11 6 8 1 14 14 10 12 5
65 66 64 56 54 55 70 69 60 55 55 36 23 19 9 4 5 6 10 7 10 10 3 7 9 5 4 2 10 7 7 13 15 12 12 7 2 1 6 11 12 4 12 16 10 7 9
66 63 69 64 56 60 55 61 72 62 56 56 24 18 13 5 6 6 15 9 13 8 4 6 9 5 6 2 2 8 3 3 6 10 11 11 5 0 3 7 7 4 12 8 6 8 4
64 60 67 67 66 58 53 48 79 67 61 57 39 28 11 18 13 11 12 15 7 8 6 6 6 9 5 3 2 3 5 3 3 4 7 8 5 4 3 3 4 5 10 13 5 6 12
67 63 64 59 62 62 58 57 78 73 64 59 54 37 16 8 17 22 8 9 14 7 5 8 10 7 8 4 5 6 3 3 4 5 7 6 5 4 4 4 3 6 15 15 5 8 26
69 69 61 65 52 57 61 81 63 79 68 64 59 47 31 11 22 24 16 10 12 9 5 16 10 7 4 6 5 2 5 3 4 2 3 5 9 5 3 4 6 19 15 8 6 25 35
70 77 62 65 61 45 61 55 71 76 76 70 59 53 42 17 14 22 22 19 16 12 12 19 3 6 5 2 3 2 6 4 1 4 3 3 5 2 7 1 4 31 8 10 32 42 34
Wind_Direction_500mb
286 288 299 303 308 313 313 317 324 332 333 333 335 339 342 345 343 343 341 340 337 337 343 351 346 21 124 90 52 325 332 334 333 323 318 307 294 293 272 298 293 272 277 282 284 284 277
284 280 285 292 297 305 303 310 315 321 325 328 331 334 341 343 343 341 340 338 338 343 353 359 354 53 108 155 335 323 330 340 344 332 304 295 289 297 289 280 276 302 300 292 286 281 279
279 282 284 282 290 294 297 304 309 315 320 325 328 332 339 341 340 342 342 339 341 348 1 25 50 118 89 44 360 336 342 335 323 318 297 287 281 269 297 292 322 296 290 288 278 272 267
276 279 282 281 289 290 296 300 303 312 316 321 325 331 335 341 341 344 343 343 347 357 21 42 63 142 115 360 352 345 343 334 317 313 272 278 268 267 270 283 283 272 270 280 264 264 296
270 277 280 280 281 289 296 294 303 308 312 317 324 332 334 339 341 343 346 346 354 18 61 69 42 128 63 346 344 360 347 332 333 353 319 280 252 265 257 271 292 282 282 302 297 296 290
267 276 273 278 278 287 289 293 298 302 309 314 324 329 333 336 341 345 353 350 7 29 68 345 14 254 30 339 340 2 348 346 335 338 234 327 283 280 236 330 313 310 301 298 296 306 291
267 270 274 275 284 283 280 292 292 298 306 313 320 327 333 336 340 347 359 0 351 46 45 77 2 25 325 339 3 354 358 350 350 271 356 356 297 11 345 322 313 302 290 286 287 294 289
264 265 273 279 282 279 281 285 288 294 302 309 317 328 333 336 338 347 359 38 353 242 86 49 20 335 330 355 338 358 358 11 354 12 350 6 43 340 329 306 311 316 305 295 293 320 313
259 264 271 282 284 279 281 281 283 289 297 305 316 325 333 336 337 344 0 13 3 155 251 321 359 357 350 1 7 360 8 346 3 356 359 8 340 324 306 314 325 323 305 316 317 317 304
257 260 275 284 281 282 279 277 279 285 292 302 312 322 333 339 342 340 344 355 7 153 191 353 2 354 352 328 98 12 12 5 7 346 349 339 336 335 316 315 332 315 334 311 301 299 271
253 253 260 265 270 277 277 270 273 279 289 298 308 320 329 338 333 340 335 349 91 101 8 356 11 358 4 42 327 355 4 4 3 347 331 4 339 344 330 330 331 307 320 306 288 264 265
253 257 255 261 264 273 270 264 268 274 284 293 303 315 324 332 330 335 341 353 108 51 8 5 3 359 6 15 13 353 5 20 358 328 300 300 302 317 327 331 330 337 322 297 279 185 167
249 255 258 260 256 265 265 257 263 269 276 287 298 308 319 322 317 333 341 40 22 65 1 335 336 342 333 354 352 4 355 30 31 347 6 327 3 345 5 337 340 346 349 345 65 42 34
247 247 251 245 249 256 263 250 258 262 270 280 293 303 312 311 327 334 349 270 60 125 303 0 329 330 3 3 12 354 2 20 30 4 302 347 333 8 4 17 343 346 1 15 344 3 343
244 242 240 241 243 247 259 247 251 256 263 275 290 300 299 298 330 342 314 49 167 216 358 326 310 314 1 358 343 354 25 17 30 25 1 335 294 0 43 358 12 334 5 312 289 221 264
246 239 239 237 239 240 244 247 246 248 255 269 286 301 279 306 331 12 70 128 142 67 40 335 354 24 345 330 353 11 16 26 359 14 6 343 295 5 24 331 21 11 1 16 334 352 21
254 248 242 239 235 236 237 240 246 238 244 257 286 281 239 316 5 54 98 136 184 159 124 315 360 17 314 321 324 348 359 32 10 353 337 289 236 319 344 26 28 14 21 354 261 14 336
272 281 242 232 231 230 231 233 241 228 230 242 257 262 240 326 287 49 103 133 143 155 175 242 245 97 149 334 285 305 321 341 7 353 330 28 287 295 38 156 76 37 14 358 342 5 18
283 262 251 233 227 223 225 228 232 222 215 216 248 258 242 211 143 98 136 112 178 148 194 208 210 177 85 246 289 249 309 3 1 7 3 339 353 322 94 172 18 27 11 5 64 278 27
271 285 265 242 223 221 221 222 224 215 210 210 254 293 174 120 102 129 149 151 154 169 202 215 194 159 126 252 220 299 295 323 355 9 355 294 10 38 64 51 348 5 6 14 4 42 319
254 267 254 260 220 218 217 217 217 211 203 202 227 227 184 188 88 118 102 151 137 183 221 210 211 233 162 269 255 243 280 306 125 11 29 360 339 282 232 252 29 38 13 15 49 24 28
251 259 270 243 231 221 215 213 214 206 199 207 221 165 135 96 128 129 202 202 170 171 162 216 221 151 170 221 246 292 327 5 16 342 13 358 352 290 248 216 233 27 29 357 20 34 20
245 250 255 262 250 235 217 212 212 207 200 204 210 197 153 153 145 160 206 173 185 156 200 197 202 182 210 241 277 268 268 277 271 316 334 334 327 305 324 345 190 196 22 31 328 33 342
244 246 249 257 253 228 223 215 213 210 208 206 203 179 168 152 206 210 177 136 158 188 244 147 185 205 143 210 308 279 262 262 245 235 214 312 291 286 318 315 21 27 123 131 103 16 36
236 241 242 242 255 222 216 226 217 210 209 211 212 192 176 129 166 160 175 130 126 113 186 186 188 179 171 65 305 300 240 260 200 228 194 212 268 278 9 23 333 227 151 193 210 28 10
233 234 239 236 241 224 211 227 219 211 207 209 210 204 181 136 216 145 157 179 167 169 160 180 180 191 186 215 180 259 266 15 212 164 186 187 233 281 172 222 272 87 129 155 78 76 160
234 230 235 229 239 246 213 221 224 211 205 207 209 204 189 158 168 162 170 177 166 170 113 148 159 169 196 187 215 221 252 355 261 236 181 204 195 241 174 244 204 96 140 155 282 128 149
238 232 233 224 230 231 243 227 225 215 204 203 207 205 201 186 179 193 189 168 158 190 177 154 122 185 175 213 228 165 240 169 267 284 246 239 182 177 126 225 270 152 128 203 147 122 142
238 237 232 223 222 221 227 244 224 216 203 201 205 203 203 198 184 190 201 209 204 191 165 172 144 157 175 160 234 121 224 192 294 288 204 262 279 315 229 358 116 185 174 196 156 153 158
Wind_Speed_850mb
5 7 6 9 9 10 10 13 14 16 19 23 28 30 33 37 42 46 49 45 49 47 30 17 14 7 11 9 3 31 49 39 26 20 19 20 20 19 18 16 24 33 37 45 44 43 49
10 9 8 10 11 11 13 12 17 17 20 24 28 32 34 38 43 47 49 47 51 32 23 16 11 6 13 2 21 29 47 28 20 23 26 23 18 23 27 25 23 26 37 41 45 50 55
13 13 10 11 13 12 14 16 17 20 22 25 29 33 36 39 43 48 47 50 43 29 15 16 10 20 13 6 19 31 31 27 25 38 39 29 25 20 14 22 14 26 36 40 41 47 34
16 17 14 15 14 17 14 18 19 20 24 27 30 33 37 40 46 49 44 49 28 19 10 13 8 9 4 21 26 29 36 34 37 27 13 13 14 19 24 24 34 35 36 30 12 16 31
20 19 19 18 16 17 18 19 21 22 24 27 30 34 39 41 46 48 46 43 25 12 9 10 10 4 5 22 39 36 39 44 36 10 12 5 5 12 12 17 25 19 20 32 45 34 34
24 22 22 20 19 17 20 21 22 23 25 28 30 33 38 43 46 42 47 30 17 21 8 1 19 2 11 30 29 38 51 40 13 17 3 5 8 14 10 13 20 34 40 41 44 39 31
28 27 25 24 18 21 21 22 23 24 25 28 30 32 38 44 47 37 43 17 11 2 22 12 7 3 20 37 11 38 60 35 16 7 16 14 11 18 28 27 28 31 37 47 48 46 28
28 28 25 26 22 25 22 23 24 24 25 28 30 32 36 43 46 33 35 14 7 5 2 9 13 5 20 33 14 45 58 26 16 19 26 4 9 18 19 21 29 44 49 47 49 32 17
28 26 26 27 26 28 25 25 26 25 24 27 29 31 34 43 38 39 32 32 11 15 6 1 9 8 20 19 12 43 52 25 16 21 21 6 13 19 20 29 38 42 47 34 41 45 51
35 28 28 32 31 32 29 28 28 25 24 26 28 31 32 40 21 38 27 36 9 12 4 17 10 11 22 14 3 34 40 21 16 21 20 6 17 23 28 33 44 40 35 49 51 26 11
45 37 35 40 38 35 37 31 29 27 23 25 27 29 32 31 30 24 35 26 4 7 5 15 9 15 20 23 22 39 39 23 21 24 9 15 21 32 27 39 49 31 54 47 43 28 18
56 50 46 46 38 38 39 33 30 26 23 24 26 27 30 33 26 34 32 16 6 4 7 10 7 20 20 24 14 30 35 41 3 9 13 13 19 11 23 44 37 53 42 27 12 10 6
66 55 47 45 40 38 38 32 31 26 23 24 25 26 28 29 17 35 26 6 6 9 9 16 11 18 21 21 11 27 26 38 29 19 24 26 1 21 35 41 21 41 37 7 4 7 10
67 66 55 46 46 35 38 31 31 28 23 23 24 26 28 23 24 27 13 3 13 2 6 7 11 20 11 21 10 26 20 28 31 27 18 17 8 24 22 20 35 29 22 10 12 11 11
81 74 58 53 47 38 37 32 30 27 23 21 23 25 25 13 24 17 4 10 4 2 5 13 14 5 8 11 13 18 23 22 18 24 16 14 8 14 12 20 40 21 19 20 10 13 6
72 71 61 52 51 44 38 30 30 26 23 19 22 25 21 13 16 7 6 6 4 2 2 2 8 6 8 16 19 18 25 12 17 27 13 9 14 8 11 15 40 16 20 7 7 14 10
40 59 63 55 55 48 41 32 30 27 22 18 17 10 9 12 5 3 6 5 4 4 2 3 3 3 3 7 13 11 16 5 21 23 18 6 4 21 9 23 39 25 14 10 4 9 10
49 52 58 62 54 52 43 34 32 30 22 17 9 5 7 6 0 6 5 7 6 6 5 4 3 1 1 3 8 6 8 8 21 21 15 8 8 11 4 9 21 40 24 10 8 9 6
41 23 41 65 56 52 45 38 34 32 25 13 8 8 5 2 5 3 3 5 5 6 6 6 4 1 3 2 6 5 7 6 15 20 13 13 11 13 1 7 22 17 38 15 2 5 13
49 49 53 63 63 53 47 40 34 33 28 23 7 1 1 4 7 10 9 6 7 3 4 5 2 5 4 4 7 10 8 2 12 18 10 5 7 9 12 3 8 24 31 31 3 5 6
45 47 42 59 66 57 51 44 40 36 32 25 11 5 6 3 1 7 4 11 8 7 7 8 6 9 6 4 4 7 7 9 7 13 6 5 4 3 6 7 4 19 26 24 20 12 7
61 56 46 51 57 63 57 50 45 39 37 35 10 9 8 6 9 11 4 11 12 7 14 7 7 7 10 7 6 4 6 6 6 10 8 6 2 3 7 11 13 18 25 22 15 14 8
65 65 55 38 48 58 65 59 52 48 48 24 26 13 8 5 6 4 6 11 11 13 10 3 10 7 5 13 14 14 15 17 12 7 8 7 5 4 11 6 8 1 14 14 10 12 5
65 66 64 56 54 55 70 69 60 55 55 36 23 19 9 4 5 6 10 7 10 10 3 7 9 5 4 2 10 7 7 13 15 12 12 7 2 1 6 11 12 4 12 16 10 7 9
66 63 69 64 56 60 55 61 72 62 56 56 24 18 13 5 6 6 15 9 13 8 4 6 9 5 6 2 2 8 3 3 6 10 11 11 5 0 3 7 7 4 12 8 6 8 4
64 60 67 67 66 58 53 48 79 67 61 57 39 28 11 18 13 11 12 15 7 8 6 6 6 9 5 3 2 3 5 3 3 4 7 8 5 4 3 3 4 5 10 13 5 6 12
67 63 64 59 62 62 58 57 78 73 64 59 54 37 16 8 17 22 8 9 14 7 5 8 10 7 8 4 5 6 3 3 4 5 7 6 5 4 4 4 3 6 15 15 5 8 26
69 69 61 65 52 57 61 81 63 79 68 64 59 47 31 11 22 24 16 10 12 9 5 16 10 7 4 6 5 2 5 3 4 2 3 5 9 5 3 4 6 19 15 8 6 25 35
70 77 62 65 61 45 61 55 71 76 76 70 59 53 42 17 14 22 22 19 16 12 12 19 3 6 5 2 3 2 6 4 1 4 3 3 5 2 7 1 4 31 8 10 32 42 34
Wind_Direction_850mb
286 288 299 303 308 313 313 317 324 332 333 333 335 339 342 345 343 343 341 340 337 337 343 351 346 21 124 90 52 325 332 334 333 323 318 307 294 293 272 298 293 272 277 282 284 284 277
284 280 285 292 297 305 303 310 315 321 325 328 331 334 341 343 343 341 340 338 338 343 353 359 354 53 108 155 335 323 330 340 344 332 304 295 289 297 289 280 276 302 300 292 286 281 279
279 282 284 282 290 294 297 304 309 315 320 325 328 332 339 341 340 342 342 339 341 348 1 25 50 118 89 44 360 336 342 335 323 318 297 287 281 269 297 292 322 296 290 288 278 272 267
276 279 282 281 289 290 296 300 303 312 316 321 325 331 335 341 341 344 343 343 347 357 21 42 63 142 115 360 352 345 343 334 317 313 272 278 268 267 270 283 283 272 270 280 264 264 296
270 277 280 280 281 289 296 294 303 308 312 317 324 332 334 339 341 343 346 346 354 18 61 69 42 128 63 346 344 360 347 332 333 353 319 280 252 265 257 271 292 282 282 302 297 296 290
267 276 273 278 278 287 289 293 298 302 309 314 324 329 333 336 341 345 353 350 7 29 68 345 14 254 30 339 340 2 348 346 335 338 234 327 283 280 236 330 313 310 301 298 296 306 291
267 270 274 275 284 283 280 292 292 298 306 313 320 327 333 336 340 347 359 0 351 46 45 77 2 25 325 339 3 354 358 350 350 271 356 356 297 11 345 322 313 302 290 286 287 294 289
264 265 273 279 282 279 281 285 288 294 302 309 317 328 333 336 338 347 359 38 353 242 86 49 20 335 330 355 338 358 358 11 354 12 350 6 43 340 329 306 311 316 305 295 293 320 313
259 264 271 282 284 279 281 281 283 289 297 305 316 325 333 336 337 344 0 13 3 155 251 321 359 357 350 1 7 360 8 346 3 356 359 8 340 324 306 314 325 323 305 316 317 317 304
257 260 275 284 281 282 279 277 279 285 292 302 312 322 333 339 342 340 344 355 7 153 191 353 2 354 352 328 98 12 12 5 7 346 349 339 336 335 316 315 332 315 334 311 301 299 271
253 253 260 265 270 277 277 270 273 279 289 298 308 320 329 338 333 340 335 349 91 101 8 356 11 358 4 42 327 355 4 4 3 347 331 4 339 344 330 330 331 307 320 306 288 264 265
253 257 255 261 264 273 270 264 268 274 284 293 303 315 324 332 330 335 341 353 108 51 8 5 3 359 6 15 13 353 5 20 358 328 300 300 302 317 327 331 330 337 322 297 279 185 167
249 255 258 260 256 265 265 257 263 269 276 287 298 308 319 322 317 333 341 40 22 65 1 335 336 342 333 354 352 4 355 30 31 347 6 327 3 345 5 337 340 346 349 345 65 42 34
247 247 251 245 249 256 263 250 258 262 270 280 293 303 312 311 327 334 349 270 60 125 303 0 329 330 3 3 12 354 2 20 30 4 302 347 333 8 4 17 343 346 1 15 344 3 343
244 242 240 241 243 247 259 247 251 256 263 275 290 300 299 298 330 342 314 49 167 216 358 326 310 314 1 358 343 354 25 17 30 25 1 335 294 0 43 358 12 334 5 312 289 221 264
246 239 239 237 239 240 244 247 246 248 255 269 286 301 279 306 331 12 70 128 142 67 40 335 354 24 345 330 353 11 16 26 359 14 6 343 295 5 24 331 21 11 1 16 334 352 21
254 248 242 239 235 236 237 240 246 238 244 257 286 281 239 316 5 54 98 136 184 159 124 315 360 17 314 321 324 348 359 32 10 353 337 289 236 319 344 26 28 14 21 354 261 14 336
272 281 242 232 231 230 231 233 241 228 230 242 257 262 240 326 287 49 103 133 143 155 175 242 245 97 149 334 285 305 321 341 7 353 330 28 287 295 38 156 76 37 14 358 342 5 18
283 262 251 233 227 223 225 228 232 222 215 216 248 258 242 211 143 98 136 112 178 148 194 208 210 177 85 246 289 249 309 3 1 7 3 339 353 322 94 172 18 27 11 5 64 278 27
271 285 265 242 223 221 221 222 224 215 210 210 254 293 174 120 102 129 149 151 154 169 202 215 194 159 126 252 220 299 295 323 355 9 355 294 10 38 64 51 348 5 6 14 4 42 319
254 267 254 260 220 218 217 217 217 211 203 202 227 227 184 188 88 118 102 151 137 183 221 210 211 233 162 269 255 243 280 306 125 11 29 360 339 282 232 252 29 38 13 15 49 24 28
251 259 270 243 231 221 215 213 214 206 199 207 221 165 135 96 128 129 202 202 170 171 162 216 221 151 170 221 246 292 327 5 16 342 13 358 352 290 248 216 233 27 29 357 20 34 20
245 250 255 262 250 235 217 212 212 207 200 204 210 197 153 153 145 160 206 173 185 156 200 197 202 182 210 241 277 268 268 277 271 316 334 334 327 305 324 345 190 196 22 31 328 33 342
244 246 249 257 253 228 223 215 213 210 208 206 203 179 168 152 206 210 177 136 158 188 244 147 185 205 143 210 308 279 262 262 245 235 214 312 291 286 318 315 21 27 123 131 103 16 36
236 241 242 242 255 222 216 226 217 210 209 211 212 192 176 129 166 160 175 130 126 113 186 186 188 179 171 65 305 300 240 260 200 228 194 212 268 278 9 23 333 227 151 193 210 28 10
233 234 239 236 241 224 211 227 219 211 207 209 210 204 181 136 216 145 157 179 167 169 160 180 180 191 186 215 180 259 266 15 212 164 186 187 233 281 172 222 272 87 129 155 78 76 160
234 230 235 229 239 246 213 221 224 211 205 207 209 204 189 158 168 162 170 177 166 170 113 148 159 169 196 187 215 221 252 355 261 236 181 204 195 241 174 244 204 96 140 155 282 128 149
238 232 233 224 230 231 243 227 225 215 204 203 207 205 201 186 179 193 189 168 158 190 177 154 122 185 175 213 228 165 240 169 267 284 246 239 182 177 126 225 270 152 128 203 147 122 142
238 237 232 223 222 221 227 244 224 216 203 201 205 203 203 198 184 190 201 209 204 191 165 172 144 157 175 160 234 121 224 192 294 288 204 262 279 315 229 358 116 185 174 196 156 153 158